Time,TemperatureF,DewpointF,PressureIn,WindDirection,WindDirectionDegrees,WindSpeedMPH,WindSpeedGustMPH,Humidity,HourlyPrecipIn,Conditions,Clouds,dailyrainin,SolarRadiationWatts/m^2,SoftwareType,DateUTC
2014-02-23 00:22:00,17.0,13.0,-100.00,ESE,104,5.0,9.0,84,0.00,,,0.00,52.000000,,2014-02-23 00:22:00,
2014-02-23 00:32:00,17.0,13.0,-100.00,ESE,104,5.0,9.0,84,0.00,,,0.00,52.000000,,2014-02-23 00:32:00,
2014-02-23 00:42:00,17.0,13.0,-100.00,ESE,104,5.0,9.0,84,0.00,,,0.00,52.000000,,2014-02-23 00:42:00,
2014-02-23 00:52:00,17.0,13.0,-100.00,ESE,104,5.0,9.0,84,0.00,,,0.00,52.000000,,2014-02-23 00:52:00,
2014-02-23 01:22:00,16.0,12.0,-100.00,ESE,103,4.0,10.0,85,0.00,,,0.00,10.000000,,2014-02-23 01:22:00,
2014-02-23 01:32:00,16.0,12.0,-100.00,ESE,103,4.0,10.0,85,0.00,,,0.00,10.000000,,2014-02-23 01:32:00,
2014-02-23 01:42:00,16.0,12.0,-100.00,ESE,103,4.0,10.0,85,0.00,,,0.00,10.000000,,2014-02-23 01:42:00,
2014-02-23 01:52:00,16.0,12.0,-100.00,ESE,103,4.0,10.0,85,0.00,,,0.00,10.000000,,2014-02-23 01:52:00,
2014-02-23 02:22:00,15.0,12.0,-100.00,East,101,3.0,9.0,86,0.00,,,0.00,0.000000,,2014-02-23 02:22:00,
2014-02-23 02:32:00,15.0,12.0,-100.00,East,101,3.0,9.0,86,0.00,,,0.00,0.000000,,2014-02-23 02:32:00,
2014-02-23 02:42:00,15.0,12.0,-100.00,East,101,3.0,9.0,86,0.00,,,0.00,0.000000,,2014-02-23 02:42:00,
2014-02-23 02:52:00,15.0,12.0,-100.00,East,101,3.0,9.0,86,0.00,,,0.00,0.000000,,2014-02-23 02:52:00,
2014-02-23 03:22:00,14.0,11.0,-100.00,East,100,3.0,7.0,86,0.00,,,-99.99,0.000000,,2014-02-23 03:22:00,
2014-02-23 03:33:00,14.0,11.0,-100.00,East,100,3.0,7.0,86,0.00,,,-99.99,0.000000,,2014-02-23 03:33:00,
2014-02-23 03:43:00,14.0,11.0,-100.00,East,100,3.0,7.0,86,0.00,,,-99.99,0.000000,,2014-02-23 03:43:00,
2014-02-23 03:54:00,14.0,11.0,-100.00,East,100,3.0,7.0,86,0.00,,,-99.99,0.000000,,2014-02-23 03:54:00,
2014-02-23 04:23:00,14.0,11.0,-100.00,East,100,2.0,7.0,86,0.00,,,0.00,0.000000,,2014-02-23 04:23:00,
2014-02-23 04:33:00,14.0,11.0,-100.00,East,100,2.0,7.0,86,0.00,,,0.00,0.000000,,2014-02-23 04:33:00,
2014-02-23 04:43:00,14.0,11.0,-100.00,East,100,2.0,7.0,86,0.00,,,0.00,0.000000,,2014-02-23 04:43:00,
2014-02-23 04:54:00,14.0,11.0,-100.00,East,100,2.0,7.0,86,0.00,,,0.00,0.000000,,2014-02-23 04:54:00,
2014-02-23 05:22:00,14.0,11.0,-100.00,East,101,2.0,5.0,86,0.00,,,0.00,0.000000,,2014-02-23 05:22:00,
2014-02-23 05:33:00,14.0,11.0,-100.00,East,101,2.0,5.0,86,0.00,,,0.00,0.000000,,2014-02-23 05:33:00,
2014-02-23 05:43:00,14.0,11.0,-100.00,East,101,2.0,5.0,86,0.00,,,0.00,0.000000,,2014-02-23 05:43:00,
2014-02-23 05:53:00,14.0,11.0,-100.00,East,101,2.0,5.0,86,0.00,,,0.00,0.000000,,2014-02-23 05:53:00,
2014-02-23 06:22:00,14.0,11.0,-100.00,East,79,3.0,4.0,87,0.00,,,0.00,0.000000,,2014-02-23 06:22:00,
2014-02-23 06:32:00,14.0,11.0,-100.00,East,79,3.0,4.0,87,0.00,,,0.00,0.000000,,2014-02-23 06:32:00,
2014-02-23 06:42:00,14.0,11.0,-100.00,East,79,3.0,4.0,87,0.00,,,0.00,0.000000,,2014-02-23 06:42:00,
2014-02-23 06:52:00,14.0,11.0,-100.00,East,79,3.0,4.0,87,0.00,,,0.00,0.000000,,2014-02-23 06:52:00,
2014-02-23 07:22:00,13.0,10.0,-100.00,NE,38,5.0,7.0,87,0.00,,,0.00,0.000000,,2014-02-23 07:22:00,
2014-02-23 07:32:00,13.0,10.0,-100.00,NE,38,5.0,7.0,87,0.00,,,0.00,0.000000,,2014-02-23 07:32:00,
2014-02-23 07:42:00,13.0,10.0,-100.00,NE,38,5.0,7.0,87,0.00,,,0.00,0.000000,,2014-02-23 07:42:00,
2014-02-23 07:52:00,13.0,10.0,-100.00,NE,38,5.0,7.0,87,0.00,,,0.00,0.000000,,2014-02-23 07:52:00,
2014-02-23 08:21:00,13.0,10.0,-100.00,ENE,66,3.0,6.0,87,0.00,,,0.00,0.000000,,2014-02-23 08:21:00,
2014-02-23 08:32:00,13.0,10.0,-100.00,ENE,66,3.0,6.0,87,0.00,,,0.00,0.000000,,2014-02-23 08:32:00,
2014-02-23 08:43:00,13.0,10.0,-100.00,ENE,66,3.0,6.0,87,0.00,,,0.00,0.000000,,2014-02-23 08:43:00,
2014-02-23 08:52:00,13.0,10.0,-100.00,ENE,66,3.0,6.0,87,0.00,,,0.00,0.000000,,2014-02-23 08:52:00,
2014-02-23 09:21:00,13.0,10.0,-100.00,SE,124,1.0,5.0,88,0.00,,,0.00,0.000000,,2014-02-23 09:21:00,
2014-02-23 09:33:00,13.0,10.0,-100.00,SE,124,1.0,5.0,88,0.00,,,0.00,0.000000,,2014-02-23 09:33:00,
2014-02-23 09:43:00,13.0,10.0,-100.00,SE,124,1.0,5.0,88,0.00,,,0.00,0.000000,,2014-02-23 09:43:00,
2014-02-23 09:53:00,13.0,10.0,-100.00,SE,124,1.0,5.0,88,0.00,,,0.00,0.000000,,2014-02-23 09:53:00,
2014-02-23 10:23:00,13.0,10.0,-100.00,ESE,103,1.0,3.0,86,0.00,,,0.00,0.000000,,2014-02-23 10:23:00,
2014-02-23 10:33:00,13.0,10.0,-100.00,ESE,103,1.0,3.0,86,0.00,,,0.00,0.000000,,2014-02-23 10:33:00,
2014-02-23 10:43:00,13.0,10.0,-100.00,ESE,103,1.0,3.0,86,0.00,,,0.00,0.000000,,2014-02-23 10:43:00,
2014-02-23 10:52:00,13.0,10.0,-100.00,ESE,103,1.0,3.0,86,0.00,,,0.00,0.000000,,2014-02-23 10:52:00,
2014-02-23 11:22:00,12.0,8.0,-100.00,East,94,2.0,4.0,84,0.00,,,0.00,0.000000,,2014-02-23 11:22:00,
2014-02-23 11:33:00,12.0,8.0,-100.00,East,94,2.0,4.0,84,0.00,,,0.00,0.000000,,2014-02-23 11:33:00,
2014-02-23 11:42:00,12.0,8.0,-100.00,East,94,2.0,4.0,84,0.00,,,0.00,0.000000,,2014-02-23 11:42:00,
2014-02-23 11:52:00,12.0,8.0,-100.00,East,94,2.0,4.0,84,0.00,,,0.00,0.000000,,2014-02-23 11:52:00,
2014-02-23 12:22:00,11.0,7.0,-100.00,ESE,106,3.0,5.0,85,0.00,,,0.00,0.000000,,2014-02-23 12:22:00,
2014-02-23 12:32:00,11.0,7.0,-100.00,ESE,106,3.0,5.0,85,0.00,,,0.00,0.000000,,2014-02-23 12:32:00,
2014-02-23 12:42:00,11.0,7.0,-100.00,ESE,106,3.0,5.0,85,0.00,,,0.00,0.000000,,2014-02-23 12:42:00,
2014-02-23 12:52:00,11.0,7.0,-100.00,ESE,106,3.0,5.0,85,0.00,,,0.00,0.000000,,2014-02-23 12:52:00,
2014-02-23 13:22:00,9.0,5.0,-100.00,East,99,4.0,7.0,84,0.00,,,0.00,0.000000,,2014-02-23 13:22:00,
2014-02-23 13:32:00,9.0,5.0,-100.00,East,99,4.0,7.0,84,0.00,,,0.00,0.000000,,2014-02-23 13:32:00,
2014-02-23 13:42:00,9.0,5.0,-100.00,East,99,4.0,7.0,84,0.00,,,0.00,0.000000,,2014-02-23 13:42:00,
2014-02-23 13:52:00,9.0,5.0,-100.00,East,99,4.0,7.0,84,0.00,,,0.00,0.000000,,2014-02-23 13:52:00,
2014-02-23 14:22:00,9.0,5.0,-100.00,East,99,3.0,7.0,83,0.00,,,0.00,2.000000,,2014-02-23 14:22:00,
2014-02-23 14:32:00,9.0,5.0,-100.00,East,99,3.0,7.0,83,0.00,,,0.00,2.000000,,2014-02-23 14:32:00,
2014-02-23 14:42:00,9.0,5.0,-100.00,East,99,3.0,7.0,83,0.00,,,0.00,2.000000,,2014-02-23 14:42:00,
2014-02-23 14:52:00,9.0,5.0,-100.00,East,99,3.0,7.0,83,0.00,,,0.00,2.000000,,2014-02-23 14:52:00,
2014-02-23 15:22:00,10.0,5.0,-100.00,East,98,3.0,7.0,81,0.00,,,0.00,28.000000,,2014-02-23 15:22:00,
2014-02-23 15:33:00,10.0,5.0,-100.00,East,98,3.0,7.0,81,0.00,,,0.00,28.000000,,2014-02-23 15:33:00,
2014-02-23 15:44:00,10.0,5.0,-100.00,East,98,3.0,7.0,81,0.00,,,0.00,28.000000,,2014-02-23 15:44:00,
2014-02-23 15:53:00,10.0,5.0,-100.00,East,98,3.0,7.0,81,0.00,,,0.00,28.000000,,2014-02-23 15:53:00,
2014-02-23 16:23:00,13.0,7.0,-100.00,East,95,4.0,8.0,76,0.00,,,0.00,95.000000,,2014-02-23 16:23:00,
2014-02-23 16:33:00,13.0,7.0,-100.00,East,95,4.0,8.0,76,0.00,,,0.00,95.000000,,2014-02-23 16:33:00,
2014-02-23 16:43:00,13.0,7.0,-100.00,East,95,4.0,8.0,76,0.00,,,0.00,95.000000,,2014-02-23 16:43:00,
2014-02-23 16:53:00,13.0,7.0,-100.00,East,95,4.0,8.0,76,0.00,,,0.00,95.000000,,2014-02-23 16:53:00,
2014-02-23 17:23:00,16.0,9.0,-100.00,ESE,105,3.0,7.0,72,0.00,,,0.00,170.000000,,2014-02-23 17:23:00,
2014-02-23 17:33:00,16.0,9.0,-100.00,ESE,105,3.0,7.0,72,0.00,,,0.00,170.000000,,2014-02-23 17:33:00,
2014-02-23 17:42:00,16.0,9.0,-100.00,ESE,105,3.0,7.0,72,0.00,,,0.00,170.000000,,2014-02-23 17:42:00,
2014-02-23 17:52:00,16.0,9.0,-100.00,ESE,105,3.0,7.0,72,0.00,,,0.00,170.000000,,2014-02-23 17:52:00,
2014-02-23 18:22:00,18.0,10.0,-100.00,East,94,4.0,8.0,70,0.00,,,0.00,220.000000,,2014-02-23 18:22:00,
2014-02-23 18:32:00,18.0,10.0,-100.00,East,94,4.0,8.0,70,0.00,,,0.00,220.000000,,2014-02-23 18:32:00,
2014-02-23 18:43:00,18.0,10.0,-100.00,East,94,4.0,8.0,70,0.00,,,0.00,220.000000,,2014-02-23 18:43:00,
2014-02-23 18:52:00,18.0,10.0,-100.00,East,94,4.0,8.0,70,0.00,,,0.00,220.000000,,2014-02-23 18:52:00,
2014-02-23 19:22:00,17.0,10.0,-100.00,ESE,104,3.0,8.0,73,0.00,,,0.00,186.000000,,2014-02-23 19:22:00,
2014-02-23 19:32:00,17.0,10.0,-100.00,ESE,104,3.0,8.0,73,0.00,,,0.00,186.000000,,2014-02-23 19:32:00,
2014-02-23 19:42:00,17.0,10.0,-100.00,ESE,104,3.0,8.0,73,0.00,,,0.00,186.000000,,2014-02-23 19:42:00,
2014-02-23 19:52:00,17.0,10.0,-100.00,ESE,104,3.0,8.0,73,0.00,,,0.00,186.000000,,2014-02-23 19:52:00,
2014-02-23 20:22:00,18.0,10.0,-100.00,ESE,108,4.0,12.0,71,0.00,,,0.00,203.000000,,2014-02-23 20:22:00,
2014-02-23 20:32:00,18.0,10.0,-100.00,ESE,108,4.0,12.0,71,0.00,,,0.00,203.000000,,2014-02-23 20:32:00,
2014-02-23 20:42:00,18.0,10.0,-100.00,ESE,108,4.0,12.0,71,0.00,,,0.00,203.000000,,2014-02-23 20:42:00,
2014-02-23 20:53:00,18.0,10.0,-100.00,ESE,108,4.0,12.0,71,0.00,,,0.00,203.000000,,2014-02-23 20:53:00,
2014-02-23 21:22:00,20.0,11.0,-100.00,NE,35,5.0,9.0,69,0.00,,,0.00,193.000000,,2014-02-23 21:22:00,
2014-02-23 21:33:00,20.0,11.0,-100.00,NE,35,5.0,9.0,69,0.00,,,0.00,193.000000,,2014-02-23 21:33:00,
2014-02-23 21:43:00,20.0,11.0,-100.00,NE,35,5.0,9.0,69,0.00,,,0.00,193.000000,,2014-02-23 21:43:00,
2014-02-23 21:53:00,20.0,11.0,-100.00,NE,35,5.0,9.0,69,0.00,,,0.00,193.000000,,2014-02-23 21:53:00,
2014-02-23 22:23:00,18.0,10.0,-100.00,East,88,4.0,13.0,70,0.00,,,0.00,161.000000,,2014-02-23 22:23:00,
2014-02-23 22:33:00,18.0,10.0,-100.00,East,88,4.0,13.0,70,0.00,,,0.00,161.000000,,2014-02-23 22:33:00,
2014-02-23 22:42:00,18.0,10.0,-100.00,East,88,4.0,13.0,70,0.00,,,0.00,161.000000,,2014-02-23 22:42:00,
2014-02-23 22:52:00,18.0,10.0,-100.00,East,88,4.0,13.0,70,0.00,,,0.00,161.000000,,2014-02-23 22:52:00,
2014-02-23 23:22:00,16.0,10.0,-100.00,ESE,118,4.0,9.0,76,0.00,,,0.00,98.000000,,2014-02-23 23:22:00,
2014-02-23 23:33:00,16.0,10.0,-100.00,ESE,118,4.0,9.0,76,0.00,,,0.00,98.000000,,2014-02-23 23:33:00,
2014-02-23 23:42:00,16.0,10.0,-100.00,ESE,118,4.0,9.0,76,0.00,,,0.00,98.000000,,2014-02-23 23:42:00,
2014-02-23 23:53:00,16.0,10.0,-100.00,ESE,118,4.0,9.0,76,0.00,,,0.00,98.000000,,2014-02-23 23:53:00,